Regional Weather Roundup
Issued by NWS

Home | Current Version | Previous Version | Text Only | Print | Product List | Glossary On
Versions: 1 2 3 4 5 6 7 8 9 10 11 12 13 14 15 16 17 18 19 20 21 22 23 24 25 26 27 28 29 30 31 32 33 34 35 36 37 38 39 40 41 42 43 44 45 46 47 48 49
000
ASUS42 KFFC 010603
RWRGA
WEATHER ROUNDUP FOR GEORGIA
NATIONAL WEATHER SERVICE PEACHTREE CITY GA
100 AM EST SUN MAR 01 2015

NOTE: "FAIR" INDICATES FEW OR NO CLOUDS BELOW 12,000 FEET WITH NO
SIGNIFICANT WEATHER AND/OR OBSTRUCTIONS TO VISIBILITY.

* = USE WITH CAUTION. THE STATIONS MARKED WITH AN ASTERISK MAY NOT
REPORT WEATHER SUCH AS PRECIPITATION, FOG, OR THUNDER AND ARE NOT
QUALITY CONTROLLED BY NWS.

THE REMARK "TC" DENOTES TEMPERATURE READING IN DEGREES CELSIUS.

GAZ001>058-010700-
NORTH GEORGIA

CITY           SKY/WX    TMP DP  RH WIND       PRES   REMARKS
ATLANTA        DRIZZLE   41  35  79 E12       30.54F
6HR MIN TEMP:  41; 6HR MAX TEMP:  49; 6HR PCP: TRACE;

ATHENS         CLOUDY    39  32  76 E10       30.58F WCI  32
6HR MIN TEMP:  39; 6HR MAX TEMP:  44; 6HR PCP:  0.02;

CHAMBLEE       CLOUDY    40  32  73 E5        30.55S
6HR MIN TEMP:  40; 6HR MAX TEMP:  47; 6HR PCP: TRACE;

PEACHTREE CITY CLOUDY    43  37  79 E10       30.54F HAZE
6HR MIN TEMP:  43; 6HR MAX TEMP:  51;

ROME           CLOUDY    44  29  55 SE10      30.51F
6HR MIN TEMP:  44; 6HR MAX TEMP:  49;

WEST ATLANTA   CLOUDY    42  32  67 E9        30.55S
6HR MIN TEMP:  42; 6HR MAX TEMP:  50; 6HR PCP: TRACE;

GAINESVILLE    CLOUDY    38  25  59 E10       30.57F WCI  31
6HR MIN TEMP:  38; 6HR MAX TEMP:  43; 6HR PCP: TRACE;

CARTERSVILLE   CLOUDY    44  28  53 E9        30.54F
6HR MIN TEMP:  44; 6HR MAX TEMP:  49;



CITY           SKY/WX    TMP DP  RH WIND       PRES   REMARKS
DALTON*        CLOUDY    43  30  61 S12G20    30.51F
MARIETTA       CLOUDY    41  32  70 E14       30.54S
$$

GAZ059>098-102>109-010700-
CENTRAL GEORGIA

CITY           SKY/WX    TMP DP  RH WIND       PRES   REMARKS
AUGUSTA-BUSH   LGT RAIN  41  36  82 NE10      30.57F
6HR MIN TEMP:  41; 6HR MAX TEMP:  50; 6HR PCP:  0.05;

AUGUSTA-DANIEL LGT RAIN  42  36  79 NE8       30.57F
6HR MIN TEMP:  42; 6HR MAX TEMP:  49; 6HR PCP:  0.01;

COLUMBUS       CLOUDY    44  41  89 E9G20     30.50F
6HR MIN TEMP:  44; 6HR MAX TEMP:  50; 6HR PCP: TRACE;

MACON          CLOUDY    42  40  92 NE8       30.54F FOG
6HR MIN TEMP:  42; 6HR MAX TEMP:  46; 6HR PCP:  0.03;

ROBINS AFB     DRIZZLE   43  40  91 VRB5      30.53F


CITY           SKY/WX    TMP DP  RH WIND       PRES   REMARKS
LAGRANGE*      CLOUDY    50  43  76 E7        30.50F
SYLVANIA*      LGT RAIN  42  41  97 NE6       30.54F
MILLEDGEVILLE* DRIZZLE   43  41  93 NE3       30.57S
$$

GAZ099>101-110>166-010700-
SOUTH GEORGIA

CITY           SKY/WX    TMP DP  RH WIND       PRES   REMARKS
SAVANNAH       CLOUDY    43  38  82 NE9       30.51F
6HR MIN TEMP:  43; 6HR MAX TEMP:  45; 6HR PCP: TRACE;

VALDOSTA       CLOUDY    45  43  93 NE7       30.46F
6HR MIN TEMP:  44; 6HR MAX TEMP:  45;

ALMA           CLOUDY    44  41  89 NE5       30.49F
6HR MIN TEMP:  43; 6HR MAX TEMP:  44; 6HR PCP: TRACE;

ST SIMONS      LGT RAIN  48  46  93 N18G28    30.45F FOG
6HR MIN TEMP:  46; 6HR MAX TEMP:  49; 6HR PCP: TRACE;

FT STEWART     CLOUDY    45  39  81 NE8       30.49F
ALBANY         LGT RAIN  45  43  93 E9        30.51F FOG
HUNTER AFB     CLOUDY    43  39  87 NE7       30.49F
MOODY AFB      CLOUDY    44  42  93 NE8       30.45F
BRUNSWICK      CLOUDY    48  45  87 N14G21    30.47F


CITY           SKY/WX    TMP DP  RH WIND       PRES   REMARKS
BAINBRIDGE*    CLOUDY    48  46  93 E13       30.46F
MOULTRIE*      CLOUDY    45  45 100 NE3       30.47F FOG
VIDALIA*       DRIZZLE   43  43 100 NE7       30.52F
WAYCROSS*      CLOUDY    47  45  91 NE8       30.48F
DOUGLAS*       CLOUDY    45  43  93 E8        30.50F
$$



USA.gov is the U.S. government's official web portal to all federal, state and local government web resources and services.